Miscellaneous Local Product
Issued by NWS Hastings, NE

Home | Current Version | Previous Version | Graphics & Text | Print | Product List | Glossary On
Versions: 1 2 3 4 5 6 7 8 9 10 11 12 13 14 15 16 17 18 19 20 21 22 23 24 25 26 27 28 29 30 31 32 33 34 35 36 37 38 39 40 41 42 43 44 45 46 47 48 49 50
733
AXUS43 KGID 201802
MISGRI

GID CWA HOURLY WEATHER ROUNDUP
NATIONAL WEATHER SERVICE HASTINGS NE
100 PM CDT WED SEP 20 2017

NOTE: "FAIR" INDICATES FEW OR NO CLOUDS BELOW 12,000 FEET WITH NO
SIGNIFICANT WEATHER AND/OR OBSTRUCTIONS TO VISIBILITY.

...SOUTH CENTRAL NEBRASKA...

CITY           SKY/WX    TMP DP  RH WIND       PRES   REMARKS
GRAND ISLAND   SUNNY     73  43  33 NW9       29.91S
HASTINGS       SUNNY     74  43  32 N10       29.91S
KEARNEY        SUNNY     72  43  35 VRB7      29.92S
ORD            SUNNY     71  39  31 NW9       29.90S
YORK           SUNNY     73  48  40 N7        29.88F
AURORA         SUNNY     73  43  34 N8        29.89S
LEXINGTON      SUNNY     73  34  24 NW9       29.92F
HOLDREGE       SUNNY     71  38  29 NW5       29.92F
HEBRON         SUNNY     78  48  34 N9        29.86F

...NEBRASKA PANHANDLE...

CITY           SKY/WX    TMP DP  RH WIND       PRES   REMARKS
CHADRON        SUNNY     70  19  14 W16G25    29.87F
ALLIANCE       SUNNY     67  26  21 W13G24    29.91F
SCOTTSBLUFF    SUNNY     68  26  20 NW12      29.91F
SIDNEY         SUNNY     66  32  28 VRB7      29.96F

...WESTERN AND NORTH CENTRAL NEBRASKA...

CITY           SKY/WX    TMP DP  RH WIND       PRES   REMARKS
VALENTINE      SUNNY     72  26  18 SW22      29.88F
AINSWORTH      SUNNY     68  36  30 SW13G20   29.90F
ONEILL         SUNNY     69  45  41 W8        29.90S
BROKEN BOW     SUNNY     72  35  25 W9        29.91F
IMPERIAL       SUNNY     73  21  14 N9        29.96F
NORTH PLATTE   SUNNY     71  33  24 N8        29.93F
MCCOOK         SUNNY     75  32  20 VRB7      29.93F

...EASTERN NEBRASKA...

CITY           SKY/WX    TMP DP  RH WIND       PRES   REMARKS
NORFOLK        SUNNY     72  46  39 W10       29.87S
SO SIOUX CITY  SUNNY     70  54  56 NW10      29.86S
TEKAMAH        SUNNY     75  51  43 NW10G17   29.85R
COLUMBUS       SUNNY     74  46  36 VRB6      29.88S
ALBION         SUNNY     71  45  38 NW6       29.89S
OMAHA EPPLEY   SUNNY     78  54  43 NW14      29.83R
OFFUTT AFB     SUNNY     77  56  47 NW10      29.82R
MILLARD        SUNNY     78  56  47 NW9G18    29.83S
LINCOLN        SUNNY     79  50  36 N10       29.85S
NEBRASKA CITY  CLOUDY    77  58  51 N10       29.82R
BEATRICE       SUNNY     80  55  42 N12       29.84S
FALLS CITY     CLOUDY    82  67  60 W9        29.78R

...NORTHERN KANSAS...

CITY           SKY/WX    TMP DP  RH WIND       PRES   REMARKS
GOODLAND       SUNNY     71  23  16 CALM      29.98S
HILL CITY      SUNNY     77  37  23 NE8       29.93S
NORTON         CLEAR     75  27  16 NE6       29.92S
PHILLIPSBURG   SUNNY     75  37  25 N9        29.90F
SMITH CENTER   SUNNY     75  46  35 N10       29.89F
HAYS           SUNNY     78  41  26 N12G18    29.89F
RUSSELL        SUNNY     80  45  28 N13G18    29.87F
CONCORDIA      SUNNY     78  53  41 N13       29.85S
SALINA         SUNNY     83  54  36 N12       29.83S
TOPEKA         CLOUDY    86  71  60 S9G18     29.79R HX  91



USA.gov is the U.S. government's official web portal to all federal, state and local government web resources and services.